[[{"header":{"parameterUnit":"m.s-1","parameterCategory":1,"la1":30.2991,"la2":30.254,"lo1":-89.0895,"lo2":-89.0444,"dy":0.0017,"dx":0.0017,"nx":28,"ny":28,"refTime":"2024-07-23T09:00:00:Z","depth":0,"parameterNumber":2,"parameterNumberName":"U-component_of_WINDS"},"data":[0,0,0,0,0,0,0,0,0,0,0,0,0,0,0,0,0,0,0,0,0,0,0,0,0,0,0,0,0,0,0,0,0,0,0,0,0,0,0,0,0,0,0,0,0,0,0,0,0,0,0,0,0,0,0,0,0,0,-1.8859,-1.8859,0,-1.8816,-1.8815,-1.8815,-1.875,-1.8749,-1.8747,-1.8746,-1.8704,-1.8704,-1.8704,0,0,0,0,0,0,0,0,0,0,0,0,0,-1.8889,-1.8889,-1.8859,-1.8859,-1.8858,-1.8816,-1.8815,-1.8814,-1.875,-1.8749,-1.8747,-1.8746,-1.8704,-1.8704,-1.8704,0,0,0,0,0,0,0,0,0,0,0,0,0,-1.8864,-1.8889,-1.8859,-1.8821,-1.8817,-1.8816,-1.8815,-1.8814,-1.875,-1.8749,-1.8747,-1.8745,-1.8704,-1.8704,-1.8704,-1.8737,0,0,-1.8703,-1.8703,0,0,0,0,0,0,0,0,-1.8866,-1.8863,-1.8827,-1.8823,-1.8819,-1.8786,-1.881,-1.8789,-1.8751,-1.8776,-1.8746,-1.8744,-1.8733,-1.873,-1.8726,-1.8735,-1.8734,-1.8703,-1.8703,-1.8703,-1.8703,0,0,0,0,0,0,0,-1.8867,-1.8865,-1.8842,-1.8827,-1.8822,-1.8806,-1.8801,-1.8806,-1.8764,-1.8773,-1.8768,-1.8764,-1.873,-1.8726,-1.8724,-1.8733,-1.8703,-1.8703,-1.8703,-1.8703,-1.8768,-1.877,0,0,0,0,0,0,-1.8874,-1.8866,-1.8843,-1.8841,-1.8838,-1.8807,-1.8801,-1.8799,-1.8764,-1.8757,-1.8766,-1.8761,-1.8727,-1.8725,-1.8723,-1.8759,-1.8703,-1.8703,-1.8703,-1.8767,-1.8769,-1.8771,0,0,0,0,0,0,-1.8875,-1.8873,-1.8845,-1.8852,-1.8847,-1.8809,-1.8806,-1.8799,-1.8794,-1.8758,-1.8751,-1.8769,-1.8726,-1.8723,-1.8734,-1.8757,-1.8703,-1.8703,-1.8764,-1.8767,-1.877,-1.8834,0,0,0,0,0,0,-1.8877,-1.8874,-1.8885,-1.8853,-1.8847,-1.8857,-1.8808,-1.8799,-1.8794,-1.8788,-1.8759,-1.8753,-1.8724,-1.8735,-1.8734,-1.8756,-1.8703,-1.8762,-1.8766,-1.8769,-1.883,-1.8838,-1.8846,0,0,0,0,0,-1.8878,-1.8906,-1.8886,-1.8884,-1.8861,-1.8858,-1.8855,-1.8821,-1.8796,-1.8808,-1.8785,-1.8754,-1.8755,-1.8736,-1.8735,-1.8757,-1.8761,-1.8765,-1.8769,-1.8826,-1.8837,-1.8846,0,0,0,0,0,0,-1.8943,-1.8901,-1.8879,-1.8897,-1.8882,-1.8847,-1.8861,-1.8833,-1.8825,-1.882,-1.8778,-1.8772,-1.8789,-1.8775,-1.8754,-1.8788,-1.8753,-1.8757,-1.8797,-1.8807,-1.8815,-1.8818,-1.8703,0,0,0,0,0,-1.8959,-1.8959,-1.8923,-1.8943,-1.8936,-1.89,-1.8898,-1.8872,-1.8855,-1.8848,-1.8826,-1.8811,-1.8808,-1.8807,-1.8802,-1.8828,-1.882,-1.8843,-1.8851,-1.8858,-1.8861,-1.8874,-1.8883,-1.8784,-1.8784,-1.8784,0,0,-1.8993,-1.897,-1.8973,-1.8955,-1.894,-1.8942,-1.8895,-1.8899,-1.89,-1.8849,-1.8858,-1.8842,-1.8822,-1.8841,-1.8848,-1.8829,-1.8887,-1.8863,-1.8869,-1.8868,-1.8879,-1.8888,-1.8897,-1.8787,-1.8786,-1.8786,0,0,-1.9055,-1.9038,-1.9052,-1.9038,-1.9016,-1.8992,-1.8996,-1.8966,-1.8953,-1.8961,-1.8923,-1.8924,-1.892,-1.8907,-1.8901,-1.896,-1.8931,-1.896,-1.9002,-1.9015,-1.9023,-1.9029,-1.905,-1.9058,-1.8963,-1.8964,-1.8964,0,-1.91,-1.91,-1.9063,-1.9069,-1.9063,-1.9017,-1.9031,-1.902,-1.8998,-1.8995,-1.8974,-1.8968,-1.8951,-1.8966,-1.8981,-1.8977,-1.898,-1.8962,-1.9024,-1.9031,-1.9036,-1.9056,-1.9063,-1.8967,-1.8967,-1.8966,-1.8966,0,-1.9157,-1.9158,-1.9172,-1.9151,-1.9146,-1.9157,-1.9122,-1.9122,-1.9098,-1.9076,-1.9086,-1.9065,-1.9055,-1.9057,-1.9034,-1.9069,-1.9058,-1.9032,-1.8995,-1.905,-1.9067,-1.9074,-1.8972,-1.8971,-1.897,-1.8969,0,0,-1.9257,-1.9216,-1.9222,-1.9211,-1.9184,-1.9185,-1.9194,-1.9183,-1.9184,-1.9171,-1.9177,-1.9175,-1.9151,-1.9143,-1.9118,-1.913,-1.9177,-1.9102,-1.9101,-1.9116,-1.9215,-1.9234,-1.9243,-1.9158,-1.916,-1.9161,-1.9216,0,-1.9313,-1.9325,-1.9292,-1.9312,-1.9313,-1.927,-1.9277,-1.9262,-1.9243,-1.9241,-1.922,-1.9219,-1.9187,-1.9182,-1.9191,-1.917,-1.9196,-1.9165,-1.9164,-1.9165,-1.9169,-1.9252,-1.9272,-1.9325,-1.9223,-1.9224,-1.9224,0,-1.938,-1.9369,-1.9389,-1.9361,-1.936,-1.9368,-1.9356,-1.9355,-1.9337,-1.9322,-1.9314,-1.9285,-1.9293,-1.9259,-1.9269,-1.9248,-1.9246,-1.9236,-1.9237,-1.9235,-1.9197,-1.9251,-1.9341,-1.9349,-1.9235,-1.9234,-1.9233,0,-1.9451,-1.9442,-1.9452,-1.9445,-1.9413,-1.9419,-1.9406,-1.9386,-1.9382,-1.9372,-1.9369,-1.9361,-1.9357,-1.9351,-1.9321,-1.9299,-1.9335,-1.9299,-1.9323,-1.9324,-1.9331,-1.9331,-1.9422,-1.9332,-1.9332,-1.9332,-1.9332,0,-1.9516,-1.953,-1.9483,-1.949,-1.9504,-1.9467,-1.9483,-1.9466,-1.9449,-1.9452,-1.9415,-1.9419,-1.9379,-1.9379,-1.9356,-1.9368,-1.9366,-1.9355,-1.9348,-1.9357,-1.9359,-1.9355,-1.935,-1.9334,-1.9334,-1.9333,-1.9333,0,-1.9597,-1.9566,-1.9575,-1.9543,-1.9536,-1.9548,-1.9521,-1.9527,-1.9505,-1.951,-1.9509,-1.9475,-1.9473,-1.9443,-1.9435,-1.9419,-1.944,-1.9427,-1.9446,-1.9441,-1.9467,-1.9465,-1.9557,-1.9568,-1.9473,-1.9474,-1.9475,0,-1.964,-1.9649,-1.9619,-1.9618,-1.9606,-1.9605,-1.9601,-1.9565,-1.9563,-1.9543,-1.9551,-1.9546,-1.9539,-1.9539,-1.9514,-1.9508,-1.9494,-1.9527,-1.9493,-1.9502,-1.9494,-1.9493,-1.9494,-1.9534,-1.9535,-1.9536,-1.9537,0,-1.972,-1.9704,-1.9699,-1.9689,-1.9684,-1.9675,-1.9663,-1.9664,-1.9626,-1.9625,-1.9621,-1.9617,-1.9608,-1.9603,-1.9593,-1.958,-1.9552,-1.9548,-1.9553,-1.9562,-1.9572,-1.9566,-1.9465,-1.9546,-1.9545,-1.9544,-1.9544,-1.9543,-1.9782,-1.9789,-1.9768,-1.9763,-1.9751,-1.9741,-1.9744,-1.9723,-1.972,-1.9709,-1.9689,-1.9689,-1.9672,-1.9654,-1.9644,-1.9645,-1.9628,-1.9636,-1.9637,-1.964,-1.9644,-1.9573,-1.9643,-1.9642,-1.9642,-1.9642,-1.9642,0,-1.9859,-1.9844,-1.984,-1.9825,-1.9821,-1.9795,-1.9781,-1.978,-1.978,-1.9766,-1.9761,-1.9758,-1.9753,-1.9729,-1.9722,-1.9727,-1.9714,-1.9726,-1.9725,-1.9723,-1.966,-1.9656,-1.9737,-1.9737,-1.9737,-1.9737,-1.9737,-1.9737,-1.9899,-1.9908,-1.9891,-1.9894,-1.9878,-1.9877,-1.9872,-1.9862,-1.9851,-1.9849,-1.9844,-1.9828,-1.981,-1.9802,-1.9797,-1.979,-1.9789,-1.9806,-1.9794,-1.9736,-1.9727,-1.9718,-1.9714,-1.9806,-1.9806,-1.9857,-1.9857,-1.9858]},{"header":{"parameterUnit":"m.s-1","parameterCategory":1,"la1":30.2991,"la2":30.254,"lo1":-89.0895,"lo2":-89.0444,"dy":0.0017,"dx":0.0017,"nx":28,"ny":28,"refTime":"2024-07-23T09:00:00:Z","depth":0,"parameterNumber":3,"parameterNumberName":"V-component_of_WINDS"},"data":[0,0,0,0,0,0,0,0,0,0,0,0,0,0,0,0,0,0,0,0,0,0,0,0,0,0,0,0,0,0,0,0,0,0,0,0,0,0,0,0,0,0,0,0,0,0,0,0,0,0,0,0,0,0,0,0,0,0,2.7455,2.7455,0,2.7419,2.7419,2.7418,2.7443,2.7444,2.7445,2.7446,2.7407,2.7405,2.7403,0,0,0,0,0,0,0,0,0,0,0,0,0,2.7541,2.7539,2.7455,2.7454,2.7454,2.7419,2.7419,2.7418,2.7443,2.7444,2.7446,2.7447,2.7408,2.7405,2.7403,0,0,0,0,0,0,0,0,0,0,0,0,0,2.7504,2.7539,2.7455,2.7462,2.7463,2.7419,2.7419,2.7418,2.7443,2.7444,2.7446,2.7448,2.7409,2.7406,2.7402,2.7349,0,0,2.7393,2.7391,0,0,0,0,0,0,0,0,2.7506,2.7501,2.7462,2.7462,2.7462,2.7437,2.7435,2.7395,2.7442,2.745,2.7446,2.7448,2.7416,2.7412,2.7402,2.7348,2.7346,2.7393,2.7391,2.7389,2.7388,0,0,0,0,0,0,0,2.7509,2.7503,2.7441,2.7461,2.7461,2.7466,2.7463,2.7427,2.7424,2.745,2.7451,2.7447,2.7416,2.7405,2.7401,2.7345,2.7393,2.739,2.7388,2.7387,2.7245,2.7243,0,0,0,0,0,0,2.7511,2.7505,2.7442,2.744,2.7489,2.7463,2.7459,2.7444,2.7424,2.7423,2.7445,2.7448,2.7409,2.7404,2.7399,2.7336,2.7389,2.7386,2.7385,2.7247,2.7245,2.7243,0,0,0,0,0,0,2.7513,2.7505,2.7443,2.7473,2.7465,2.746,2.7442,2.7442,2.7431,2.7421,2.742,2.7435,2.741,2.7404,2.7362,2.7335,2.7385,2.7382,2.7249,2.7246,2.7244,2.7208,0,0,0,0,0,0,2.7515,2.7506,2.7486,2.7472,2.7463,2.7407,2.744,2.744,2.7425,2.7429,2.7411,2.7409,2.7411,2.7366,2.7359,2.7331,2.738,2.7252,2.7248,2.7245,2.7212,2.7205,2.7198,0,0,0,0,0,2.7518,2.7477,2.7485,2.7478,2.7439,2.7405,2.74,2.7404,2.7423,2.7403,2.7397,2.741,2.7339,2.7362,2.7353,2.7325,2.7253,2.7249,2.7245,2.7215,2.7206,2.7199,0,0,0,0,0,0,2.7488,2.7476,2.7484,2.7438,2.7423,2.741,2.7385,2.7395,2.7373,2.7377,2.7381,2.7377,2.7332,2.7324,2.735,2.7272,2.7299,2.7293,2.7279,2.7271,2.7264,2.7267,2.7377,0,0,0,0,0,2.7476,2.745,2.7441,2.74,2.7393,2.739,2.7375,2.7379,2.7363,2.7357,2.7347,2.733,2.7304,2.7287,2.7262,2.7211,2.7207,2.7187,2.718,2.7175,2.7169,2.714,2.7131,2.7229,2.7229,2.7229,0,0,2.7451,2.7441,2.7424,2.7394,2.7383,2.7355,2.7384,2.7354,2.7333,2.7352,2.7312,2.7304,2.7285,2.7238,2.7217,2.723,2.7141,2.7169,2.7165,2.7162,2.7135,2.7126,2.7118,2.7226,2.7227,2.7227,0,0,2.7391,2.7381,2.7346,2.7334,2.7317,2.7315,2.7307,2.7292,2.7288,2.7248,2.7261,2.7236,2.7191,2.7177,2.7164,2.7098,2.7109,2.709,2.7055,2.7027,2.7019,2.7012,2.6988,2.698,2.7085,2.7084,2.7084,0,2.7361,2.7321,2.7327,2.7296,2.7281,2.7298,2.7262,2.725,2.7225,2.7214,2.7229,2.7173,2.7162,2.7111,2.7095,2.7084,2.7074,2.7092,2.702,2.7013,2.7007,2.6984,2.6975,2.7082,2.7083,2.7083,2.7083,0,2.7286,2.7258,2.7231,2.7208,2.7191,2.7157,2.7157,2.7138,2.7144,2.714,2.7098,2.7085,2.7058,2.7046,2.7051,2.6996,2.7004,2.702,2.7047,2.6995,2.6974,2.6965,2.7079,2.708,2.7081,2.7081,0,0,2.7206,2.7186,2.7176,2.7165,2.7147,2.7125,2.7092,2.7066,2.705,2.7032,2.7003,2.6965,2.6979,2.6964,2.6967,2.6942,2.689,2.696,2.696,2.6947,2.6828,2.6816,2.6806,2.6897,2.6895,2.6894,2.6829,0,2.7145,2.7088,2.7092,2.7038,2.7011,2.7026,2.6997,2.6982,2.6977,2.6953,2.6948,2.692,2.6941,2.6932,2.6908,2.6901,2.6866,2.6906,2.687,2.6868,2.6874,2.6795,2.6783,2.6722,2.6821,2.6819,2.6818,0,2.7066,2.7046,2.699,2.6975,2.6964,2.6938,2.6914,2.6892,2.6874,2.6873,2.6856,2.6863,2.6828,2.6856,2.6808,2.6835,2.682,2.6814,2.6812,2.6809,2.684,2.6789,2.6703,2.6694,2.6805,2.6806,2.6807,0,2.7013,2.6972,2.6933,2.6923,2.6905,2.6886,2.6878,2.6862,2.6846,2.6825,2.6815,2.6789,2.6775,2.6755,2.6754,2.6775,2.6705,2.6733,2.6702,2.6702,2.6687,2.6688,2.6597,2.6677,2.6677,2.6678,2.6678,0,2.6945,2.6909,2.6909,2.6885,2.6846,2.6849,2.681,2.6803,2.6789,2.6763,2.6774,2.6749,2.675,2.6724,2.6723,2.6683,2.6676,2.6673,2.6673,2.6672,2.6673,2.6663,2.6667,2.6675,2.6676,2.6676,2.6677,0,2.6879,2.6878,2.6836,2.6822,2.6818,2.6789,2.6777,2.6753,2.675,2.6717,2.6709,2.6703,2.6673,2.667,2.6636,2.6635,2.6586,2.6591,2.6592,2.6593,2.6562,2.6565,2.6461,2.6448,2.6537,2.6536,2.6535,0,2.6836,2.6809,2.6792,2.6776,2.6767,2.674,2.6724,2.6726,2.6709,2.6687,2.6666,2.6637,2.6615,2.6566,2.6558,2.6531,2.6535,2.6501,2.6531,2.6531,2.6534,2.6536,2.6533,2.6495,2.6494,2.6493,2.6492,0,2.6758,2.6759,2.6736,2.6712,2.6692,2.6673,2.6656,2.6642,2.6641,2.6621,2.6591,2.6574,2.6538,2.651,2.6483,2.6473,2.6482,2.6483,2.6474,2.6473,2.6475,2.6473,2.6576,2.6485,2.6486,2.6487,2.6487,2.6487,2.6702,2.6679,2.6664,2.6637,2.6624,2.6607,2.6585,2.6578,2.6554,2.6526,2.6528,2.6495,2.6477,2.6443,2.6431,2.6404,2.6416,2.6403,2.64,2.6397,2.6393,2.6479,2.6399,2.6399,2.64,2.64,2.64,0,2.6625,2.6616,2.6592,2.6567,2.6546,2.6557,2.6538,2.6519,2.649,2.6473,2.6451,2.6416,2.6388,2.6377,2.635,2.633,2.6334,2.6323,2.6324,2.6322,2.6385,2.6395,2.6321,2.6321,2.6321,2.6321,2.6321,2.6321,2.6583,2.6544,2.6543,2.6497,2.6488,2.6456,2.6444,2.6428,2.6415,2.6376,2.6353,2.6346,2.6331,2.6303,2.6277,2.6274,2.6264,2.6251,2.625,2.6309,2.6317,2.6325,2.6335,2.6249,2.6249,2.6189,2.6189,2.6188]}]]